This demonstration page uses our WeatherBlox Daily Observations layout. Learn more.

Left ArrowRight Arrow

39.92423, -83.80882

Hourly Observations for April 24, 2020

Temp ( °F °C ) Dew Point ( °F °C ) Humidity (%) Winds ( mph kmh ) Pressure ( in mb ) Visibility ( mi km ) Precip ( " mm )
12:13 am 00:13 Cloudy with Mist and Fog 52 11 52 11 100 100 NE 8 13 29.66 1004 2 3.21868 0 0
12:40 am 00:40 Cloudy with Mist and Fog 52 11 52 11 100 100 NNE 9 15 29.66 1004 3 4.82802 0 0
12:56 am 00:56 Cloudy with Mist and Fog 51 10.6 51 10.6 100 100 NNE 9 15 29.65 1004 3 4.82802 0 0
1:07 am 01:07 Cloudy with Mist and Fog 52 11 52 11 100 100 NNE 9 15 29.66 1004 2.5 4.02335 0 0
1:24 am 01:24 Cloudy with Light Rain 52 11 52 11 100 100 NNE 9 15 29.66 1004 4 6.43736 0.001 0.001
1:56 am 01:56 Cloudy with Light Rain 51 10.6 51 10.6 100 100 NNE 8 13 29.66 1004 10 16.0934 0.001 0.001
2:56 am 02:56 Cloudy with Light Rain 50 10 50 10 100 100 NNE 9 15 29.65 1004 10 16.0934 0.001 0.001
3:56 am 03:56 Cloudy with Mist and Fog 49 9.4 49 9.4 100 100 NNE 12 19 29.64 1004 6 9.65604 0 0
4:56 am 04:56 Cloudy with Mist and Fog 49 9.4 49 9.4 100 100 N 12 19 29.67 1005 4 6.43736 0.001 0.001
5:56 am 05:56 Cloudy with Mist and Fog 47 8.3 47 8.3 100 100 N 13 20 29.69 1006 5 8.0467 0 0
6:49 am 06:49 Cloudy with Mist and Fog 46 8 46 8 100 100 N 12 19 29.73 1007 2 3.21868 0 0
6:56 am 06:56 Cloudy with Mist and Fog 46 7.8 46 7.8 100 100 N 9 15 29.72 1006 2 3.21868 0 0
7:13 am 07:13 Cloudy with Mist and Fog 46 8 46 8 100 100 N 8 13 29.73 1007 1.75 2.816345 0 0
7:51 am 07:51 Cloudy with Mist and Fog 46 8 46 8 100 100 NNW 6 9 29.76 1008 2.5 4.02335 0 0
7:56 am 07:56 Cloudy with Mist and Fog 47 8.3 47 8.3 100 100 NNW 7 11 29.75 1008 2.5 4.02335 0 0
8:10 am 08:10 Cloudy with Mist and Fog 46 8 46 8 100 100 NNW 10 17 29.77 1008 2.5 4.02335 0 0
8:23 am 08:23 Cloudy with Mist and Fog 46 8 46 8 100 100 NNW 12 19 29.78 1008 3 4.82802 0 0
8:34 am 08:34 Cloudy with Mist and Fog 46 8 46 8 100 100 N 10 17 29.78 1008 2.5 4.02335 0 0
8:44 am 08:44 Cloudy with Mist and Fog 48 9 48 9 100 100 N 10 17 29.79 1009 5 8.0467 0 0
8:56 am 08:56 Cloudy with Mist and Fog 49 9.4 49 9.4 100 100 N 9 15 29.78 1009 6 9.65604 0 0
9:43 am 09:43 Cloudy with Mist and Fog 48 9 48 9 100 100 N 12 19 29.81 1009 4 6.43736 0 0
9:56 am 09:56 Cloudy with Mist and Fog 48 8.9 48 8.9 100 100 N 14 22 29.8 1009 5 8.0467 0 0
10:52 am 10:52 Cloudy 48 9 48 9 100 100 N 9 15 29.84 1010 7 11.26538 0 0
10:56 am 10:56 Mostly Cloudy 51 10.6 50 10 96 96 N 10 17 29.83 1010 7 11.26538 0 0
11:24 am 11:24 Mostly Cloudy 52 11 50 10 94 94 N 7 11 29.84 1010 9 14.48406 0 0
11:56 am 11:56 Sunny 54 12.2 49 9.4 83 83 N 9 15 29.84 1011 10 16.0934 0 0
12:56 pm 12:56 Sunny 58 14.4 51 10.6 78 78 N 9 15 29.85 1011 10 16.0934 0 0
1:47 pm 13:47 Mostly Cloudy 61 16 50 10 68 68 N 10 17 29.84 1010 10 16.0934 0 0
1:56 pm 13:56 Partly Cloudy 61 16.1 50 10 67 67 N 6 9 29.85 1011 10 16.0934 0.02 0.508
2:04 pm 14:04 Mostly Cloudy 61 16 50 10 68 68 NNW 9 15 29.84 1010 10 16.0934 0 0
2:40 pm 14:40 Mostly Cloudy 63 17 50 10 64 64 N 13 20 29.83 1010 10 16.0934 0 0
2:56 pm 14:56 Partly Cloudy 62 16.7 50 10 65 65 N 10 17 29.85 1011 10 16.0934 0 0
3:56 pm 15:56 Mostly Sunny 63 17.2 47 8.3 56 56 VRB 6 9 29.85 1011 10 16.0934 0 0
4:56 pm 16:56 Cloudy 64 17.8 47 8.3 54 54 W 3 6 29.84 1011 10 16.0934 0 0
5:56 pm 17:56 Mostly Cloudy 64 17.8 48 8.9 56 56 Calm 29.83 1010 10 16.0934 0 0
6:56 pm 18:56 Cloudy 62 16.7 48 8.9 60 60 NNW 6 9 29.85 1011 10 16.0934 0 0
7:56 pm 19:56 Cloudy 60 15.6 48 8.9 65 65 N 5 7 29.86 1011 10 16.0934 0.01 0.254
8:56 pm 20:56 Clear 56 13.3 48 8.9 75 75 NE 6 9 29.88 1012 10 16.0934 0 0
9:56 pm 21:56 Clear 53 11.7 49 9.4 86 86 E 5 7 29.91 1013 10 16.0934 0 0
10:56 pm 22:56 Clear 51 10.6 48 8.9 89 89 E 6 9 29.91 1013 10 16.0934 0 0
11:56 pm 23:56 Clear 50 10 48 8.9 93 93 E 5 7 29.9 1013 9 14.48406 0 0

Powered by AerisWeather